This is the latest recevied weather packets stored in our database for station/object IW4DZV-13. If no packets are shown the sender has not sent any weather packets the latest 10 day(s).
| Time | Temp. | Humidity | Pressure | Rain* | Wind** | Luminosity | Snow |
|---|---|---|---|---|---|---|---|
| 1787608849 | 22.22° C | 75% | 1012.1 hPa | 0 mm | - | 0 W/m² | - |
| 1787607947 | 22.78° C | 73% | 1012 hPa | 0.51 mm | - | 0 W/m² | - |
| 1787607047 | 23.33° C | 72% | 1011.9 hPa | 0.51 mm | - | 0 W/m² | - |
| 1787606146 | 23.33° C | 70% | 1012.4 hPa | 0.51 mm | - | 0 W/m² | - |
| 1787605244 | 23.89° C | 68% | 1012.4 hPa | 0.51 mm | - | 0 W/m² | - |
| 1787604341 | 24.44° C | 66% | 1012.9 hPa | 0.51 mm | - | 0 W/m² | - |
| 1787603440 | 24.44° C | 65% | 1013 hPa | 0.51 mm | - | 0 W/m² | - |
| 1787602538 | 25° C | 64% | 1013.2 hPa | 0.51 mm | - | 0 W/m² | - |
| 1787601643 | 25° C | 63% | 1013.2 hPa | 0.51 mm | - | 0 W/m² | - |
| 1787600738 | 25° C | 62% | 1013.2 hPa | 0.51 mm | - | 0 W/m² | - |
| 1787599843 | 25° C | 61% | 1013.3 hPa | 0.51 mm | - | 0 W/m² | - |
| 1787598939 | 25.56° C | 60% | 1013.2 hPa | 0.51 mm | - | 0 W/m² | - |
| 1787598036 | 25.56° C | 59% | 1013.2 hPa | 0.51 mm | - | 0 W/m² | - |
| 1787597136 | 25.56° C | 58% | 1013.4 hPa | 0.51 mm | - | 0 W/m² | - |
| 1787596236 | 26.11° C | 58% | 1013.3 hPa | 0.51 mm | - | 0 W/m² | - |
| 1787595335 | 26.11° C | 58% | 1013.2 hPa | 0.51 mm | - | 0 W/m² | - |
| 1787594434 | 26.67° C | 58% | 1013.2 hPa | 0.51 mm | - | 0 W/m² | - |
| 1787593536 | 27.22° C | 57% | 1013.4 hPa | 0.51 mm | - | 9 W/m² | - |
| 1787592632 | 27.78° C | 56% | 1013.4 hPa | 0.51 mm | - | 16 W/m² | - |
| 1787591732 | 28.33° C | 55% | 1013.4 hPa | 0.51 mm | - | 40 W/m² | - |
| 1787590831 | 28.33° C | 54% | 1013.5 hPa | 0.51 mm | - | 56 W/m² | - |
| 1787589929 | 28.33° C | 53% | 1013.7 hPa | 0.51 mm | - | 42 W/m² | - |
| 1787589038 | 28.89° C | 52% | 1013.8 hPa | 0.51 mm | - | 39 W/m² | - |
| 1787588142 | 29.44° C | 49% | 1013.8 hPa | 0.51 mm | - | 44 W/m² | - |
| 1787587229 | 29.44° C | 48% | 1013.8 hPa | 0.51 mm | - | 265 W/m² | - |
* Rain since midnight (hover to see other rain measurements)
** Current wind speed in m/s (hover to see current wind gust speed)